COSMOS 2492 (754)

Last updated on Sun Sep 20 2026 00:03:20 GMT+0000 (Coordinated Universal Time)

1 39620U 14012A 26261.72072632 -.00000035 00000+0 00000+0 0 9991 2 39620 65.2379 310.7526 0011995 306.9531 53.0076 2.13103532 97232
UTC large
Height (km)
Speed (km/s)
/
Latitude / Longitude
Inclination (degrees)
Orbital Period (minutes)
Azimuth
Elevation
Range (km)
Doppler Factor

Next 0 passes for location: London (51.5072 / 0.1276)

No passes found over London.
COSMOS 2492 (754)